Regional Weather Roundup
Issued by NWS

Home | Current Version | Previous Version | Graphics & Text | Print | Product List | Glossary On
Versions: 1 2 3 4 5 6 7 8 9 10 11 12 13 14 15 16 17 18 19 20 21 22 23 24 25 26 27
000
ASUS45 KCYS 230110
RWRWY

WYOMING REGIONAL WEATHER ROUNDUP
NATIONAL WEATHER SERVICE CHEYENNE WY
600 PM MST SUN JAN 22 2017

NOTE:  "FAIR" INDICATES FEW OR NO CLOUDS BELOW 12,000 FEET
WITH NO SIGNIFICANT WEATHER AND/OR OBSTRUCTIONS TO VISIBILITY.

WYZ001-230200-
YELLOWSTONE NATIONAL PARK

CITY           SKY/WX    TMP DP  RH WIND       PRES   REMARKS
LK YELLOWSTONE   N/A     20  15  81 CALM      29.71F
W YELLOWSTONE  NOT AVBL

$$
WYZ002>013-054>058-071-098>099-230200-
NORTHERN WYOMING

CITY           SKY/WX    TMP DP  RH WIND       PRES   REMARKS
JACKSON        LGT SNOW  23  21  93 SW15      29.75F VSB 1   WCI  10
CODY           MOCLDY    26  16  65 CALM      29.72F
GREYBULL       FAIR      13   9  84 NW5       29.78F WCI   5
WORLAND        FAIR      20  16  84 N5        29.76F WCI  13
SHERIDAN       FAIR      22  17  81 SW7       29.76S WCI  13
BUFFALO        FAIR      25  16  68 NW9       29.74F WCI  15
GILLETTE       FAIR      26  21  81 S5        29.78F WCI  20
HULETT         FAIR      30  19  64 S6        29.80F WCI  24
NEWCASTLE      FAIR      28  23  80 S12       29.84S WCI  18

$$
WYZ014>020-022>026-101>103-230200-
CENTRAL WYOMING

CITY           SKY/WX    TMP DP  RH WIND       PRES   REMARKS
BIG PINEY      LGT SNOW  15  12  88 CALM      29.82S FOG
PINEDALE       LGT SNOW  18  16  93 SE5       29.82F WCI  11
DUBOIS         NOT AVBL
LANDER         FAIR      21  14  74 W3        29.74F
RIVERTON       FAIR      14   9  80 NW7       29.77R WCI   4
CASPER         FAIR      30  16  56 SW20G29   29.80F WCI  17
DOUGLAS        FAIR      31  14  49 W10       29.83F WCI  22

$$
WYZ021-027>030-104>119-230200-
SOUTHERN WYOMING

CITY           SKY/WX    TMP DP  RH WIND       PRES   REMARKS
EVANSTON       LGT SNOW  22  19  89 E8        29.73F FOG     WCI  12
ROCK SPRINGS   CLOUDY    27  15  61 S5        29.81F WCI  22
RAWLINS        FAIR      25  13  60 VRB5      29.85F WCI  19
LARAMIE        FAIR      22   9  57 SW14      29.83S WCI   9
CHEYENNE       FAIR      28   9  44 VRB3      29.85R
TORRINGTON     FAIR      34  14  43 NW10      29.86S WCI  26

$$




USA.gov is the U.S. government's official web portal to all federal, state and local government web resources and services.